SCP
0 0 0 0 0 0 0 0 0 0 0 0 0 0 0 0 0 0 0 0 0 0 0 0 0 0 0 1 1 1 1 2 3 3 3 3 3 3 3 3 2 2 2 2
0 0 0 0 0 0 0 0 0 0 0 0 0 0 0 0 0 0 0 0 0 0 0 0 0 0 0 1 1 1 1 2 3 3 3 3 3 3 3 3 2 2 2 1
0 0 0 0 0 0 0 0 0 0 0 0 0 0 0 0 0 0 0 0 0 0 0 0 0 1 1 1 1 1 1 2 3 3 3 3 3 3 3 3 2 2 2 1
0 0 0 0 0 0 0 0 0 0 0 0 0 0 0 0 0 0 0 0 0 0 0 0 1 1 1 1 1 1 1 3 3 3 3 3 3 3 3 3 2 2 2 1
0 0 0 0 0 0 0 0 0 0 0 0 0 0 0 0 0 0 0 0 0 0 0 0 1 1 1 1 1 1 1 2 3 3 3 3 2 2 2 2 2 2 1 1
0 0 0 0 0 0 0 0 0 0 0 0 0 0 0 0 0 0 0 0 0 0 0 0 1 1 1 1 1 1 1 2 3 3 3 3 2 2 2 2 2 2 1 1
0 0 0 0 0 0 0 0 0 0 0 0 0 0 0 0 0 0 0 0 0 0 0 0 0 0 1 1 1 1 1 2 2 3 3 3 2 2 2 2 2 1 1 1
0 0 0 0 0 0 0 0 0 0 0 0 0 0 0 0 0 0 0 0 0 0 0 0 0 0 0 0 1 1 1 2 2 3 3 3 3 2 2 2 1 1 1 1
0 0 0 0 0 0 0 0 0 0 0 0 0 0 0 0 0 0 0 0 0 0 0 0 0 0 0 0 0 0 1 1 2 2 3 3 3 3 2 2 1 1 1 1
0 0 0 0 0 0 0 0 0 0 0 0 0 0 0 0 0 0 0 0 0 0 0 0 0 0 0 0 0 0 1 1 2 2 2 3 3 3 2 2 1 1 1 1
0 0 0 0 0 0 0 0 0 0 0 0 0 0 0 0 0 0 0 0 0 0 0 0 0 0 0 0 0 0 0 1 2 2 2 2 2 2 2 2 1 1 1 1
0 0 0 0 0 0 0 0 0 0 0 0 0 0 0 0 0 0 0 0 0 0 0 0 0 0 0 0 0 0 0 1 1 2 2 1 2 2 2 1 1 1 1 1
0 0 0 0 0 0 0 0 0 0 0 0 0 0 0 0 0 0 0 0 0 0 0 0 0 0 0 0 0 0 0 0 1 1 1 1 1 1 2 1 1 1 1 1
0 0 0 0 0 0 0 0 0 0 0 0 0 0 0 0 0 0 0 0 0 0 0 0 0 0 0 0 0 0 0 0 0 0 1 1 1 1 1 1 1 1 1 1
0 0 0 0 0 0 0 0 0 0 0 0 0 0 0 0 0 0 0 0 0 0 0 0 0 0 0 0 0 0 0 0 0 0 0 1 1 1 1 1 1 1 1 1
0 0 0 0 0 0 0 0 0 0 0 0 0 0 0 0 0 0 0 0 0 0 0 0 0 0 0 0 0 0 0 0 0 0 0 0 1 0 1 1 1 1 1 1
0 0 0 0 0 0 0 0 0 0 0 0 0 0 0 0 0 0 0 0 0 0 0 0 0 0 0 0 0 0 0 0 0 0 0 0 0 0 0 0 1 1 1 1
0 0 0 0 0 0 0 0 0 0 0 0 0 0 0 0 0 0 0 0 0 0 0 0 0 0 0 0 0 0 0 0 0 0 0 0 0 0 0 0 0 1 1 1
0 0 0 0 0 0 0 0 0 0 0 0 0 0 0 0 0 0 0 0 0 0 0 0 0 0 0 0 0 0 0 0 0 0 0 0 0 0 0 0 0 0 0 1
0 0 0 0 0 0 0 0 0 0 0 0 0 0 0 0 0 0 0 0 0 0 0 0 0 0 0 0 0 0 0 0 0 0 0 0 0 0 0 0 0 0 0 0
0 0 0 0 0 0 0 0 0 0 0 0 0 0 0 0 0 0 0 0 0 0 0 0 0 0 0 0 0 0 0 0 0 0 0 0 0 0 0 0 0 0 0 0
0 0 0 0 0 0 0 0 0 0 0 0 0 0 0 0 0 0 0 0 0 0 0 0 0 0 0 0 0 0 0 0 0 0 0 0 0 0 0 0 0 0 0 0
0 0 0 0 0 0 0 0 0 0 0 0 0 0 0 0 0 0 0 0 0 0 0 0 0 0 0 0 0 0 0 0 0 0 0 0 0 0 0 0 0 0 0 0
0 0 0 0 0 0 0 0 0 0 0 0 0 0 0 0 0 0 0 0 0 0 0 0 0 0 0 0 0 0 0 0 0 0 0 0 0 0 0 0 0 0 0 0
0 0 0 0 0 0 0 0 0 0 0 0 0 0 0 0 0 0 0 0 0 0 0 0 0 0 0 0 0 0 0 0 0 0 0 0 0 0 0 0 0 0 0 0
0 0 0 0 0 0 0 0 0 0 0 0 0 0 0 0 0 0 0 0 0 0 0 0 0 0 0 0 0 0 0 0 0 0 0 0 0 0 0 0 0 0 0 0
Wind_Speed
5 6 7 7 8 8 9 11 14 13 9 9 12 16 15 12 11 9 9 9 8 8 7 6 5 5 6 6 7 8 9 10 8 7 8 8 8 7 7 7 9 10 11 12
5 9 8 6 6 9 10 12 14 12 9 10 13 17 16 14 12 10 10 9 8 8 7 6 6 5 6 6 7 8 9 10 10 8 8 7 7 7 7 6 8 10 11 12
8 5 4 5 7 9 11 10 10 12 13 11 12 13 13 9 8 9 10 9 9 8 7 6 6 5 5 6 7 7 9 9 10 9 6 5 5 4 6 7 8 10 12 13
7 5 5 6 8 8 10 7 10 11 10 7 5 9 10 9 8 8 8 7 6 7 6 5 5 6 6 6 6 7 8 9 10 10 9 9 9 9 10 9 8 9 12 12
6 4 5 8 8 6 7 7 9 11 10 11 9 9 9 6 8 6 5 5 4 4 4 4 5 5 6 6 5 5 6 8 9 10 11 11 10 9 7 7 9 10 10 12
11 7 6 6 5 6 6 7 10 9 5 9 9 8 9 4 5 4 3 2 1 2 2 3 3 3 4 4 5 5 6 7 8 10 11 12 13 11 9 10 10 10 8 9
7 8 7 4 5 4 3 3 3 2 4 7 4 7 8 4 2 1 1 1 1 2 3 3 4 3 3 2 4 4 6 7 8 9 11 12 13 13 12 12 11 10 9 9
5 5 5 4 4 3 5 5 4 4 4 5 4 7 5 2 1 1 1 1 2 2 3 4 4 3 2 3 3 4 5 7 8 9 10 11 12 10 9 11 10 11 10 10
4 3 0 2 3 3 4 5 4 5 7 7 7 6 6 4 2 1 1 1 2 3 4 5 5 4 3 3 3 4 5 6 7 7 8 9 10 10 9 9 10 8 9 8
4 6 5 2 2 5 6 4 2 3 5 6 7 7 5 3 3 2 2 2 3 4 5 5 5 4 4 3 3 3 4 6 5 6 7 7 9 9 9 8 9 9 9 9
4 4 4 3 6 6 5 5 5 5 5 5 6 5 2 2 3 2 2 4 4 5 5 5 5 4 4 4 3 3 4 4 5 5 6 6 7 8 8 8 9 9 8 9
3 3 6 8 8 6 6 6 6 6 7 6 7 8 4 4 5 5 5 6 5 5 5 5 5 4 4 4 4 4 3 3 4 4 4 6 6 6 7 8 8 8 9 9
2 3 4 5 4 3 4 5 6 5 6 7 10 11 3 5 6 7 7 7 7 7 7 6 5 4 4 4 4 4 4 3 3 3 3 4 5 6 6 7 7 7 7 8
3 5 8 9 6 5 7 9 8 8 8 11 14 17 14 11 11 9 9 9 8 7 7 6 6 4 4 4 4 4 5 4 3 3 3 4 4 5 5 5 5 6 6 6
4 7 9 13 14 14 15 15 13 14 14 15 17 19 18 12 10 10 10 9 9 8 7 6 5 5 5 4 4 4 5 4 4 4 3 3 4 4 3 4 4 5 5 6
5 6 8 13 13 15 18 17 17 18 18 19 20 22 15 12 10 10 9 8 8 8 7 6 6 5 5 5 5 5 5 5 4 4 4 4 4 4 3 3 3 3 4 4
5 5 6 9 10 13 15 14 17 17 16 16 20 19 12 11 10 9 8 7 6 6 6 5 5 5 5 5 5 5 5 4 4 4 5 4 4 4 3 3 3 4 4 4
8 7 5 6 6 13 10 6 11 14 15 13 13 11 9 9 8 7 6 6 6 6 5 5 4 5 5 5 5 5 4 4 4 4 5 5 4 4 4 3 3 3 3 3
13 10 6 5 8 13 9 8 7 9 11 8 10 8 7 6 7 6 4 4 5 5 5 5 4 5 5 6 5 4 4 4 4 5 5 5 4 4 4 3 3 3 2 2
11 10 8 7 8 10 5 2 3 4 8 4 4 5 5 5 5 5 5 6 6 6 5 6 6 6 6 6 5 4 4 4 4 5 5 5 4 4 4 3 3 2 1 2
6 8 12 12 11 11 7 3 1 4 6 2 2 4 4 5 5 5 5 6 5 5 5 6 6 5 6 6 5 4 4 5 5 4 5 5 4 4 4 3 2 2 1 1
8 7 9 8 11 12 4 2 4 5 4 5 5 5 5 5 5 6 5 6 5 5 5 5 5 5 6 5 5 4 4 4 4 4 4 4 4 4 3 3 3 2 1 1
9 9 6 9 9 6 3 4 5 4 5 6 6 6 5 6 6 6 6 6 6 5 5 4 5 6 6 5 4 4 5 4 4 4 4 4 4 3 3 2 2 2 1 1
7 7 8 10 9 8 7 7 7 6 6 5 5 5 5 6 7 6 6 6 5 5 5 4 5 6 6 5 4 4 4 4 4 4 4 4 3 3 3 2 2 2 2 2
7 5 8 13 12 10 9 8 7 6 6 6 6 6 6 7 7 7 6 6 5 4 4 4 4 5 6 6 5 5 4 4 4 4 4 4 3 3 3 3 2 3 2 3
10 11 12 13 9 8 8 5 6 7 6 6 6 6 5 5 7 7 6 5 4 4 4 4 4 5 5 5 6 5 4 4 3 4 4 3 3 3 2 2 3 4 3 4
Wind_Direction
205 229 234 238 246 269 282 281 282 284 289 280 274 276 276 274 263 256 255 255 253 250 241 235 230 219 210 203 201 198 195 195 190 190 193 194 199 198 197 198 197 197 192 188
232 238 248 259 268 278 276 277 279 287 294 289 278 275 273 264 255 251 254 255 253 254 245 232 228 223 218 206 204 203 198 195 196 196 198 198 197 199 201 199 202 204 197 192
247 262 269 265 262 263 264 268 278 291 303 285 281 277 266 266 252 248 246 245 250 249 246 235 227 228 224 217 213 213 204 197 198 195 188 191 189 193 200 204 207 209 203 199
262 258 254 263 264 264 271 276 287 291 295 289 290 290 273 263 250 243 244 244 242 247 248 242 228 223 220 221 216 215 208 199 196 193 191 194 200 204 206 202 205 208 205 205
266 266 259 259 267 267 276 292 282 279 277 280 266 268 274 256 247 237 242 242 241 247 244 250 242 232 219 213 217 220 214 206 197 195 198 201 210 213 209 202 205 211 209 208
258 255 254 256 268 264 284 291 277 259 252 262 244 239 274 254 245 239 242 254 293 319 296 280 264 255 233 211 211 221 220 215 205 199 201 205 210 211 209 208 209 210 210 209
263 237 221 220 254 243 254 277 286 258 219 241 233 238 253 259 270 268 329 357 355 338 331 324 315 306 298 242 221 225 222 220 212 205 204 208 211 212 213 211 209 207 210 209
269 258 194 189 229 245 238 233 245 266 259 285 278 247 257 247 317 44 44 4 328 326 325 315 306 303 307 281 236 234 229 227 219 211 210 212 214 215 218 215 212 210 213 211
282 279 92 228 257 249 249 239 259 279 287 277 252 255 268 277 301 347 332 351 341 336 334 326 326 321 314 301 261 249 243 236 231 222 214 217 217 219 221 219 215 213 213 210
289 290 280 271 265 236 242 276 278 245 268 268 266 258 261 276 283 327 325 334 336 337 333 329 323 319 309 296 278 261 254 240 239 234 223 222 220 222 223 220 219 218 214 210
277 268 274 247 219 234 224 235 240 250 245 262 278 267 325 340 347 350 342 346 332 321 318 318 312 314 315 318 305 280 260 251 243 238 233 228 225 225 225 225 224 221 217 211
247 269 265 255 254 253 238 237 230 242 252 255 272 272 305 333 344 343 330 326 318 312 304 306 308 312 320 318 313 304 287 267 260 251 243 233 229 228 230 230 229 225 220 214
280 245 278 277 235 209 243 241 247 256 267 256 259 268 305 329 326 322 319 317 317 316 313 315 320 321 321 322 319 315 308 297 289 274 259 248 236 230 232 236 233 227 224 221
286 241 232 245 268 289 276 270 260 251 253 259 254 269 284 292 298 305 311 310 309 311 313 319 320 318 320 323 323 323 319 316 310 292 271 265 254 241 235 236 237 231 225 224
241 253 253 262 273 275 271 267 257 248 249 257 267 272 278 283 292 296 299 303 307 309 316 320 320 320 324 328 326 324 322 324 330 315 293 284 281 264 248 240 239 237 232 232
223 256 271 270 269 271 270 264 259 255 254 257 265 269 272 281 284 287 290 298 303 309 318 324 325 327 328 327 325 328 327 326 334 322 309 303 301 291 269 250 247 242 237 232
224 239 266 270 276 283 265 248 247 248 246 249 257 264 277 282 286 291 297 301 302 307 311 316 323 326 324 320 321 321 315 316 322 317 318 315 308 298 286 273 254 241 237 231
232 236 251 272 280 249 248 242 244 253 256 254 261 271 272 277 288 293 295 301 308 313 315 314 317 317 315 319 319 318 319 323 322 318 317 315 312 305 301 286 267 257 242 229
222 224 234 241 252 268 267 258 252 256 264 258 267 278 293 308 307 297 324 341 340 340 338 330 323 319 322 322 317 318 323 322 320 315 314 314 315 309 303 291 273 261 257 251
211 212 226 234 246 255 257 295 308 291 273 268 272 291 309 322 300 296 343 343 339 337 337 333 326 320 316 312 315 318 320 318 314 315 316 315 316 314 310 298 287 274 259 264
194 209 223 236 249 261 264 277 329 241 263 326 318 306 305 288 275 300 322 325 326 324 322 320 318 315 309 313 318 312 314 311 313 318 316 316 319 315 310 307 304 294 272 266
199 210 216 222 239 249 239 223 216 245 304 314 310 303 294 287 292 304 306 306 306 308 314 319 317 312 312 317 318 311 309 313 320 319 316 318 323 324 326 319 314 309 276 239
213 213 218 216 232 259 253 248 256 278 289 292 293 296 292 288 291 299 300 300 301 306 310 316 314 312 313 317 320 316 316 322 323 322 318 319 322 322 322 319 316 323 306 258
238 233 250 260 258 264 278 285 284 284 287 291 294 293 292 289 293 295 294 295 296 302 310 316 317 315 317 325 330 321 322 327 327 317 314 316 320 323 331 333 327 320 305 280
248 254 254 263 271 278 268 269 281 291 294 295 294 291 291 292 291 291 290 289 292 304 312 315 314 312 317 326 327 328 329 328 319 312 314 319 319 319 328 334 329 313 301 290
239 247 252 260 263 264 272 274 292 293 288 288 291 290 291 294 294 298 294 296 303 312 316 317 314 312 315 317 317 322 327 328 321 317 318 316 315 318 322 327 333 342 329 333